This demonstration page uses our WeatherBlox Daily Observations layout. Learn more.

Left ArrowRight Arrow

39.92423, -83.80882

Hourly Observations for October 29, 2021

Temp ( °F °C ) Dew Point ( °F °C ) Humidity (%) Winds ( mph kmh ) Pressure ( in mb ) Visibility ( mi km ) Precip ( " mm )
12:56 am 00:56 Cloudy 55 13 N/A N/A SE 8 13 29.52 1000 10 16 N/A
1:16 am 01:16 Cloudy with Light Rain 55 13 N/A N/A SE 8 13 29.52 1000 10 16 N/A
1:30 am 01:30 Cloudy with Rain 55 13 N/A N/A SE 12 19 29.54 1000 8 13 N/A
1:47 am 01:47 Cloudy with Light Rain 55 13 N/A N/A SE 9 15 29.53 1000 9 14 N/A
1:56 am 01:56 Cloudy with Rain 55 13 N/A N/A SE 9 15 29.53 1000 8 13 N/A
2:24 am 02:24 Cloudy with Light Rain 55 13 N/A N/A ESE 9 15 29.52 1000 10 16 N/A
2:56 am 02:56 Cloudy with Light Rain N/A N/A N/A ESE 12 19 N/A 10 16 N/A
3:56 am 03:56 Cloudy with Light Rain 55 13 N/A N/A E 10 17 29.51 999 10 16 N/A
4:56 am 04:56 Cloudy 55 13 N/A N/A ENE 7 11 29.49 999 10 16 N/A
5:56 am 05:56 Cloudy 55 13 N/A N/A E 7 11 29.48 998 10 16 N/A
6:36 am 06:36 Cloudy with Light Rain 55 13 N/A N/A E 12 19 29.46 998 10 16 N/A
6:56 am 06:56 Cloudy with Light Rain 55 13 N/A N/A E 6 9 29.46 998 10 16 N/A
7:56 am 07:56 Cloudy 55 13 N/A N/A E 8 13 29.47 998 10 16 N/A
8:43 am 08:43 Cloudy 55 13 N/A N/A E 5 7 29.47 998 10 16 N/A
8:56 am 08:56 Cloudy with Light Rain 55 13 N/A N/A ENE 6 9 29.47 998 10 16 N/A
9:56 am 09:56 Cloudy with Light Rain 55 13 N/A N/A NE 7 11 29.47 998 10 16 N/A
10:27 am 10:27 Cloudy with Light Rain 55 13 N/A N/A NNE 6 9 29.46 998 10 16 N/A
10:39 am 10:39 Cloudy with Light Rain 55 13 N/A N/A NNE 6 9 29.46 998 9 14 N/A
10:56 am 10:56 Cloudy with Light Rain 55 13 N/A N/A NNE 6 9 29.46 998 9 14 N/A
11:56 am 11:56 Cloudy with Rain 55 13 N/A N/A NNE 7 11 29.44 997 5 8 N/A
12:49 pm 12:49 Cloudy with Rain 55 13 N/A N/A N 6 9 29.44 997 5 8 N/A
12:56 pm 12:56 Cloudy with Rain 55 13 N/A N/A NNE 7 11 29.43 997 6 10 N/A
1:22 pm 13:22 Cloudy with Rain 55 13 N/A N/A N 7 11 29.42 996 8 13 N/A
1:56 pm 13:56 Cloudy with Light Rain 55 13 N/A N/A N 7 11 29.41 996 6 10 N/A
2:20 pm 14:20 Cloudy with Light Rain 55 13 N/A N/A N 7 11 29.40 996 10 16 N/A
2:27 pm 14:27 Cloudy with Light Rain 55 13 N/A N/A N 8 13 29.40 996 10 16 N/A
2:29 pm 14:29 Cloudy with Light Rain 55 13 N/A N/A undefined N/A 29.40 996 10 16 N/A
2:46 pm 14:46 Cloudy with Light Rain 57 14 N/A N/A undefined N/A 29.40 995 7 11 N/A
2:56 pm 14:56 Cloudy with Light Rain 57 14 N/A N/A undefined N/A 29.40 995 4 6 N/A
3:56 pm 15:56 Cloudy 55 13 N/A N/A NNE 9 15 29.40 996 7 11 N/A
4:05 pm 16:05 Cloudy with Light Rain 55 13 N/A N/A N 10 17 29.40 996 3 4 N/A
4:16 pm 16:16 Cloudy with Light Rain 55 13 N/A N/A N 8 13 29.40 996 3 5 N/A
4:19 pm 16:19 Cloudy with Light Rain 55 13 N/A N/A N 7 11 29.40 996 3 5 N/A
4:35 pm 16:35 Cloudy with Light Rain 55 13 N/A N/A N 7 11 29.40 996 8 13 N/A
4:40 pm 16:40 Cloudy with Light Rain 55 13 N/A N/A NNW 7 11 29.40 996 8 13 N/A
4:49 pm 16:49 Cloudy 55 13 N/A N/A NNW 6 9 29.40 996 9 14 N/A
4:56 pm 16:56 Cloudy 55 13 N/A N/A NNW 8 13 29.40 996 10 16 N/A
5:38 pm 17:38 Cloudy with Light Rain 55 13 N/A N/A NNW 6 9 29.40 996 8 13 N/A
5:47 pm 17:47 Cloudy with Light Rain 55 13 N/A N/A NNW 7 11 29.40 996 6 10 N/A
5:56 pm 17:56 Cloudy with Light Rain 55 13 N/A N/A NW 6 9 29.40 996 9 14 N/A
6:26 pm 18:26 Cloudy 55 13 N/A N/A NNW 5 7 29.41 996 10 16 N/A
6:53 pm 18:53 Cloudy 55 13 N/A N/A NW 5 7 29.41 996 10 16 N/A
6:56 pm 18:56 Cloudy 55 13 N/A N/A NW 5 7 29.41 996 10 16 N/A
7:19 pm 19:19 Cloudy with Light Rain 55 13 N/A N/A NNW 5 7 29.41 996 10 16 N/A
7:30 pm 19:30 Cloudy with Light Rain 55 13 N/A N/A NNE 6 9 29.41 996 10 16 N/A
7:37 pm 19:37 Cloudy with Light Rain 55 13 N/A N/A NNE 7 11 29.41 996 10 16 N/A
7:56 pm 19:56 Cloudy with Light Rain 55 13 N/A N/A NNE 7 11 29.42 996 10 16 N/A
8:38 pm 20:38 Cloudy with Light Rain 54 12 N/A N/A N 6 9 29.41 996 10 16 N/A
8:56 pm 20:56 Cloudy with Light Rain 54 12 N/A N/A N 6 9 29.42 996 10 16 N/A
9:56 pm 21:56 Cloudy 54 12 N/A N/A NNW 3 6 29.42 996 10 16 N/A
10:56 pm 22:56 Cloudy 54 12 N/A N/A NNW 5 7 29.43 997 10 16 N/A
11:56 pm 23:56 Cloudy 54 12 N/A N/A NNW 5 7 29.42 996 9 14 N/A

Powered by AerisWeather